owner,sensor,date,latitude,longitude,vertical_datum,mass_concentration_of_oxygen_in_sea_water,qcFlag 
SCCF RECON,ioos:station:SCCF:53:1,2011-03-01T00:00:00Z,26.6493,-81.8810,2.166,6.99,1111122 
SCCF RECON,ioos:station:SCCF:53:1,2011-03-01T01:00:00Z,26.6493,-81.8810,2.17,6.88,1111122 
SCCF RECON,ioos:station:SCCF:53:1,2011-03-01T02:00:00Z,26.6493,-81.8810,2.2,6.97,1111122 
SCCF RECON,ioos:station:SCCF:53:1,2011-03-01T03:00:00Z,26.6493,-81.8810,2.24,5.8,1111122 
SCCF RECON,ioos:station:SCCF:53:1,2011-03-01T04:00:00Z,26.6493,-81.8810,2.27,6.68,1111122 
SCCF RECON,ioos:station:SCCF:53:1,2011-03-01T05:00:00Z,26.6493,-81.8810,2.28,6.78,1111122 
SCCF RECON,ioos:station:SCCF:53:1,2011-03-01T06:00:00Z,26.6493,-81.8810,2.254,6.77,1111122 
SCCF RECON,ioos:station:SCCF:53:1,2011-03-01T07:00:00Z,26.6493,-81.8810,2.2,6.61,1111122 
SCCF RECON,ioos:station:SCCF:53:1,2011-03-01T08:00:00Z,26.6493,-81.8810,2.15,6.59,1111122 
SCCF RECON,ioos:station:SCCF:53:1,2011-03-01T09:00:00Z,26.6493,-81.8810,2.1,6.54,1111122 
SCCF RECON,ioos:station:SCCF:53:1,2011-03-01T10:00:00Z,26.6493,-81.8810,2.05,6.5,1111122 
SCCF RECON,ioos:station:SCCF:53:1,2011-03-01T11:00:00Z,26.6493,-81.8810,1.99,6.39,1111122 
SCCF RECON,ioos:station:SCCF:53:1,2011-03-01T12:00:00Z,26.6493,-81.8810,1.95,6.38,1111122 
SCCF RECON,ioos:station:SCCF:53:1,2011-03-01T13:00:00Z,26.6493,-81.8810,1.91,6.31,1111122 
SCCF RECON,ioos:station:SCCF:53:1,2011-03-01T14:00:00Z,26.6493,-81.8810,1.877,6.21,1111122 
SCCF RECON,ioos:station:SCCF:53:1,2011-03-01T15:00:00Z,26.6493,-81.8810,1.87,6.11,1111122 
SCCF RECON,ioos:station:SCCF:53:1,2011-03-01T16:00:00Z,26.6493,-81.8810,1.9,6.06,1111122 
SCCF RECON,ioos:station:SCCF:53:1,2011-03-01T17:00:00Z,26.6493,-81.8810,1.94,6.88,1111122 
SCCF RECON,ioos:station:SCCF:53:1,2011-03-01T18:00:00Z,26.6493,-81.8810,1.972,6.86,1111122 
SCCF RECON,ioos:station:SCCF:53:1,2011-03-01T19:00:00Z,26.6493,-81.8810,2.004,6.78,1111122 
SCCF RECON,ioos:station:SCCF:53:1,2011-03-01T20:00:00Z,26.6493,-81.8810,2.034,6.86,1111122 
SCCF RECON,ioos:station:SCCF:53:1,2011-03-01T21:00:00Z,26.6493,-81.8810,2.054,7.01,1111122 
SCCF RECON,ioos:station:SCCF:53:1,2011-03-01T22:00:00Z,26.6493,-81.8810,2.054,7.07,1111122 
SCCF RECON,ioos:station:SCCF:53:1,2011-03-01T23:00:00Z,26.6493,-81.8810,2.03,7.09,1111122 
SCCF RECON,ioos:station:SCCF:53:1,2011-03-02T00:00:00Z,26.6493,-81.8810,2.008,7.03,1111122 
SCCF RECON,ioos:station:SCCF:53:1,2011-03-02T01:00:00Z,26.6493,-81.8810,2.0,6.89,1111122 
SCCF RECON,ioos:station:SCCF:53:1,2011-03-02T02:00:00Z,26.6493,-81.8810,2.047,6.49,1111122 
SCCF RECON,ioos:station:SCCF:53:1,2011-03-02T03:00:00Z,26.6493,-81.8810,2.097,6.95,1111122 
SCCF RECON,ioos:station:SCCF:53:1,2011-03-02T04:00:00Z,26.6493,-81.8810,2.127,6.91,1111122 
SCCF RECON,ioos:station:SCCF:53:1,2011-03-02T05:00:00Z,26.6493,-81.8810,2.172,6.91,1111122 
SCCF RECON,ioos:station:SCCF:53:1,2011-03-02T06:00:00Z,26.6493,-81.8810,2.199,6.81,1111122 
SCCF RECON,ioos:station:SCCF:53:1,2011-03-02T07:00:00Z,26.6493,-81.8810,2.183,6.83,1111122 
SCCF RECON,ioos:station:SCCF:53:1,2011-03-02T08:00:00Z,26.6493,-81.8810,2.141,6.8,1111122 
SCCF RECON,ioos:station:SCCF:53:1,2011-03-02T09:00:00Z,26.6493,-81.8810,2.09,6.8,1111122 
SCCF RECON,ioos:station:SCCF:53:1,2011-03-02T10:00:00Z,26.6493,-81.8810,2.04,6.59,1111122 
SCCF RECON,ioos:station:SCCF:53:1,2011-03-02T11:00:00Z,26.6493,-81.8810,2.0,6.52,1111122 
SCCF RECON,ioos:station:SCCF:53:1,2011-03-02T12:00:00Z,26.6493,-81.8810,1.95,6.52,1111122 
SCCF RECON,ioos:station:SCCF:53:1,2011-03-02T13:00:00Z,26.6493,-81.8810,1.91,6.49,1111122 
SCCF RECON,ioos:station:SCCF:53:1,2011-03-02T14:00:00Z,26.6493,-81.8810,1.87,6.56,1111122 
SCCF RECON,ioos:station:SCCF:53:1,2011-03-02T15:00:00Z,26.6493,-81.8810,1.83,6.69,1111122 
SCCF RECON,ioos:station:SCCF:53:1,2011-03-02T16:00:00Z,26.6493,-81.8810,1.82,6.78,1111122 
SCCF RECON,ioos:station:SCCF:53:1,2011-03-02T17:00:00Z,26.6493,-81.8810,1.847,6.95,1111122 
SCCF RECON,ioos:station:SCCF:53:1,2011-03-02T18:00:00Z,26.6493,-81.8810,1.88,7.07,1111122 
SCCF RECON,ioos:station:SCCF:53:1,2011-03-02T19:00:00Z,26.6493,-81.8810,1.901,7.18,1111122 
SCCF RECON,ioos:station:SCCF:53:1,2011-03-02T20:00:00Z,26.6493,-81.8810,1.928,7.23,1111122 
SCCF RECON,ioos:station:SCCF:53:1,2011-03-02T21:00:00Z,26.6493,-81.8810,1.932,7.5,1111122 
SCCF RECON,ioos:station:SCCF:53:1,2011-03-02T22:00:00Z,26.6493,-81.8810,1.896,7.52,1111122 
SCCF RECON,ioos:station:SCCF:53:1,2011-03-02T23:00:00Z,26.6493,-81.8810,1.861,7.64,1111122 
SCCF RECON,ioos:station:SCCF:53:1,2011-03-03T00:00:00Z,26.6493,-81.8810,1.838,7.48,1111122 
SCCF RECON,ioos:station:SCCF:53:1,2011-03-03T01:00:00Z,26.6493,-81.8810,1.81,7.46,1111122 
SCCF RECON,ioos:station:SCCF:53:1,2011-03-03T02:00:00Z,26.6493,-81.8810,1.792,7.37,1111122 
SCCF RECON,ioos:station:SCCF:53:1,2011-03-03T03:00:00Z,26.6493,-81.8810,1.816,7.3,1111122 
SCCF RECON,ioos:station:SCCF:53:1,2011-03-03T04:00:00Z,26.6493,-81.8810,1.862,7.22,1111122 
SCCF RECON,ioos:station:SCCF:53:1,2011-03-03T05:00:00Z,26.6493,-81.8810,1.9,7.28,1111122 
SCCF RECON,ioos:station:SCCF:53:1,2011-03-03T06:00:00Z,26.6493,-81.8810,1.94,6.52,1111122 
SCCF RECON,ioos:station:SCCF:53:1,2011-03-03T07:00:00Z,26.6493,-81.8810,1.981,6.94,1111122 
SCCF RECON,ioos:station:SCCF:53:1,2011-03-03T08:00:00Z,26.6493,-81.8810,2.01,6.83,1111122 
SCCF RECON,ioos:station:SCCF:53:1,2011-03-03T09:00:00Z,26.6493,-81.8810,1.99,6.74,1111122 
SCCF RECON,ioos:station:SCCF:53:1,2011-03-03T10:00:00Z,26.6493,-81.8810,1.94,6.51,1111122 
SCCF RECON,ioos:station:SCCF:53:1,2011-03-03T11:00:00Z,26.6493,-81.8810,1.91,6.85,1111122 
SCCF RECON,ioos:station:SCCF:53:1,2011-03-03T12:00:00Z,26.6493,-81.8810,1.876,6.86,1111122 
SCCF RECON,ioos:station:SCCF:53:1,2011-03-03T13:00:00Z,26.6493,-81.8810,1.841,6.91,1111122 
SCCF RECON,ioos:station:SCCF:53:1,2011-03-03T14:00:00Z,26.6493,-81.8810,1.811,7.01,1111122 
SCCF RECON,ioos:station:SCCF:53:1,2011-03-03T15:00:00Z,26.6493,-81.8810,1.798,7.07,1111122 
SCCF RECON,ioos:station:SCCF:53:1,2011-03-03T16:00:00Z,26.6493,-81.8810,1.83,7.21,1111122 
SCCF RECON,ioos:station:SCCF:53:1,2011-03-03T17:00:00Z,26.6493,-81.8810,1.872,7.37,1111122 
SCCF RECON,ioos:station:SCCF:53:1,2011-03-03T18:00:00Z,26.6493,-81.8810,1.897,7.46,1111122 
SCCF RECON,ioos:station:SCCF:53:1,2011-03-03T19:00:00Z,26.6493,-81.8810,1.938,7.35,1111122 
SCCF RECON,ioos:station:SCCF:53:1,2011-03-03T20:00:00Z,26.6493,-81.8810,1.981,7.35,1111122 
SCCF RECON,ioos:station:SCCF:53:1,2011-03-03T21:00:00Z,26.6493,-81.8810,2.002,7.12,1111122 
SCCF RECON,ioos:station:SCCF:53:1,2011-03-03T22:00:00Z,26.6493,-81.8810,2.002,7.09,1111122 
SCCF RECON,ioos:station:SCCF:53:1,2011-03-03T23:00:00Z,26.6493,-81.8810,1.98,7.17,1111122 
SCCF RECON,ioos:station:SCCF:53:1,2011-03-04T00:00:00Z,26.6493,-81.8810,1.949,7.48,1111122 
SCCF RECON,ioos:station:SCCF:53:1,2011-03-04T01:00:00Z,26.6493,-81.8810,1.918,7.22,1111122 
SCCF RECON,ioos:station:SCCF:53:1,2011-03-04T02:00:00Z,26.6493,-81.8810,1.893,7.19,1111122 
SCCF RECON,ioos:station:SCCF:53:1,2011-03-04T03:00:00Z,26.6493,-81.8810,1.93,7.19,1111122 
SCCF RECON,ioos:station:SCCF:53:1,2011-03-04T04:00:00Z,26.6493,-81.8810,1.98,7.16,1111122 
SCCF RECON,ioos:station:SCCF:53:1,2011-03-04T05:00:00Z,26.6493,-81.8810,2.027,7.13,1111122 
SCCF RECON,ioos:station:SCCF:53:1,2011-03-04T06:00:00Z,26.6493,-81.8810,2.07,7.11,1111122 
SCCF RECON,ioos:station:SCCF:53:1,2011-03-04T07:00:00Z,26.6493,-81.8810,2.111,7.06,1111122 
SCCF RECON,ioos:station:SCCF:53:1,2011-03-04T08:00:00Z,26.6493,-81.8810,2.12,6.98,1111122 
SCCF RECON,ioos:station:SCCF:53:1,2011-03-04T09:00:00Z,26.6493,-81.8810,2.09,6.91,1111122 
SCCF RECON,ioos:station:SCCF:53:1,2011-03-04T10:00:00Z,26.6493,-81.8810,2.04,6.89,1111122 
SCCF RECON,ioos:station:SCCF:53:1,2011-03-04T11:00:00Z,26.6493,-81.8810,2.0,6.91,1111122 
SCCF RECON,ioos:station:SCCF:53:1,2011-03-04T12:00:00Z,26.6493,-81.8810,1.96,6.76,1111122 
SCCF RECON,ioos:station:SCCF:53:1,2011-03-04T13:00:00Z,26.6493,-81.8810,1.923,6.79,1111122 
SCCF RECON,ioos:station:SCCF:53:1,2011-03-04T14:00:00Z,26.6493,-81.8810,1.89,6.76,1111122 
SCCF RECON,ioos:station:SCCF:53:1,2011-03-04T15:00:00Z,26.6493,-81.8810,1.86,6.66,1111122 
SCCF RECON,ioos:station:SCCF:53:1,2011-03-04T16:00:00Z,26.6493,-81.8810,1.86,7.03,1111122 
SCCF RECON,ioos:station:SCCF:53:1,2011-03-04T17:00:00Z,26.6493,-81.8810,1.894,7.15,1111122 
SCCF RECON,ioos:station:SCCF:53:1,2011-03-04T18:00:00Z,26.6493,-81.8810,1.937,7.59,1111122 
SCCF RECON,ioos:station:SCCF:53:1,2011-03-04T19:00:00Z,26.6493,-81.8810,1.982,7.57,1111122 
SCCF RECON,ioos:station:SCCF:53:1,2011-03-04T20:00:00Z,26.6493,-81.8810,2.014,7.55,1111122 
SCCF RECON,ioos:station:SCCF:53:1,2011-03-04T21:00:00Z,26.6493,-81.8810,2.054,7.48,1111122 
SCCF RECON,ioos:station:SCCF:53:1,2011-03-04T22:00:00Z,26.6493,-81.8810,2.071,7.49,1111122 
SCCF RECON,ioos:station:SCCF:53:1,2011-03-04T23:00:00Z,26.6493,-81.8810,2.05,7.48,1111122 
SCCF RECON,ioos:station:SCCF:53:1,2011-03-05T00:00:00Z,26.6493,-81.8810,2.011,7.36,1111122 
SCCF RECON,ioos:station:SCCF:53:1,2011-03-05T01:00:00Z,26.6493,-81.8810,1.99,7.52,1111122 
SCCF RECON,ioos:station:SCCF:53:1,2011-03-05T02:00:00Z,26.6493,-81.8810,1.97,7.49,1111122 
SCCF RECON,ioos:station:SCCF:53:1,2011-03-05T03:00:00Z,26.6493,-81.8810,1.97,7.27,1111122 
SCCF RECON,ioos:station:SCCF:53:1,2011-03-05T04:00:00Z,26.6493,-81.8810,2.01,7.15,1111122 
SCCF RECON,ioos:station:SCCF:53:1,2011-03-05T05:00:00Z,26.6493,-81.8810,2.067,7.22,1111122 
SCCF RECON,ioos:station:SCCF:53:1,2011-03-05T06:00:00Z,26.6493,-81.8810,2.116,7.29,1111122 
SCCF RECON,ioos:station:SCCF:53:1,2011-03-05T07:00:00Z,26.6493,-81.8810,2.17,7.18,1111122 
SCCF RECON,ioos:station:SCCF:53:1,2011-03-05T08:00:00Z,26.6493,-81.8810,2.218,7.13,1111122 
SCCF RECON,ioos:station:SCCF:53:1,2011-03-05T09:00:00Z,26.6493,-81.8810,2.23,7.11,1111122 
SCCF RECON,ioos:station:SCCF:53:1,2011-03-05T10:00:00Z,26.6493,-81.8810,2.19,7.04,1111122 
SCCF RECON,ioos:station:SCCF:53:1,2011-03-05T11:00:00Z,26.6493,-81.8810,2.15,6.93,1111122 
SCCF RECON,ioos:station:SCCF:53:1,2011-03-05T12:00:00Z,26.6493,-81.8810,2.1,6.84,1111122 
SCCF RECON,ioos:station:SCCF:53:1,2011-03-05T13:00:00Z,26.6493,-81.8810,2.057,6.79,1111122 
SCCF RECON,ioos:station:SCCF:53:1,2011-03-05T14:00:00Z,26.6493,-81.8810,2.01,6.81,1111122 
SCCF RECON,ioos:station:SCCF:53:1,2011-03-05T15:00:00Z,26.6493,-81.8810,1.969,6.81,1111122 
SCCF RECON,ioos:station:SCCF:53:1,2011-03-05T16:00:00Z,26.6493,-81.8810,1.95,6.83,1111122 
SCCF RECON,ioos:station:SCCF:53:1,2011-03-05T17:00:00Z,26.6493,-81.8810,1.995,6.94,1111122 
SCCF RECON,ioos:station:SCCF:53:1,2011-03-05T18:00:00Z,26.6493,-81.8810,2.05,7.33,1111122 
SCCF RECON,ioos:station:SCCF:53:1,2011-03-05T19:00:00Z,26.6493,-81.8810,2.103,7.42,1111122 
SCCF RECON,ioos:station:SCCF:53:1,2011-03-05T20:00:00Z,26.6493,-81.8810,2.162,7.45,1111122 
SCCF RECON,ioos:station:SCCF:53:1,2011-03-05T21:00:00Z,26.6493,-81.8810,2.2,7.44,1111122 
SCCF RECON,ioos:station:SCCF:53:1,2011-03-05T22:00:00Z,26.6493,-81.8810,2.201,7.47,1111122 
SCCF RECON,ioos:station:SCCF:53:1,2011-03-05T23:00:00Z,26.6493,-81.8810,2.17,7.35,1111122 
SCCF RECON,ioos:station:SCCF:53:1,2011-03-06T00:00:00Z,26.6493,-81.8810,2.12,7.25,1111122 
SCCF RECON,ioos:station:SCCF:53:1,2011-03-06T01:00:00Z,26.6493,-81.8810,2.08,7.25,1111122 
SCCF RECON,ioos:station:SCCF:53:1,2011-03-06T02:00:00Z,26.6493,-81.8810,2.04,7.4,1111122 
SCCF RECON,ioos:station:SCCF:53:1,2011-03-06T03:00:00Z,26.6493,-81.8810,2.0,7.2,1111122 
SCCF RECON,ioos:station:SCCF:53:1,2011-03-06T04:00:00Z,26.6493,-81.8810,2.0,7.13,1111122 
SCCF RECON,ioos:station:SCCF:53:1,2011-03-06T05:00:00Z,26.6493,-81.8810,2.05,6.73,1111122 
SCCF RECON,ioos:station:SCCF:53:1,2011-03-06T06:00:00Z,26.6493,-81.8810,2.11,7.2,1111122 
SCCF RECON,ioos:station:SCCF:53:1,2011-03-06T07:00:00Z,26.6493,-81.8810,2.16,7.16,1111122 
SCCF RECON,ioos:station:SCCF:53:1,2011-03-06T08:00:00Z,26.6493,-81.8810,2.21,7.04,1111122 
SCCF RECON,ioos:station:SCCF:53:1,2011-03-06T09:00:00Z,26.6493,-81.8810,2.24,6.98,1111122 
SCCF RECON,ioos:station:SCCF:53:1,2011-03-06T10:00:00Z,26.6493,-81.8810,2.24,6.9,1111122 
SCCF RECON,ioos:station:SCCF:53:1,2011-03-06T11:00:00Z,26.6493,-81.8810,2.19,6.9,1111122 
SCCF RECON,ioos:station:SCCF:53:1,2011-03-06T12:00:00Z,26.6493,-81.8810,2.148,6.92,1111122 
SCCF RECON,ioos:station:SCCF:53:1,2011-03-06T13:00:00Z,26.6493,-81.8810,2.1,6.84,1111122 
SCCF RECON,ioos:station:SCCF:53:1,2011-03-06T14:00:00Z,26.6493,-81.8810,2.06,6.74,1111122 
SCCF RECON,ioos:station:SCCF:53:1,2011-03-06T15:00:00Z,26.6493,-81.8810,2.02,6.81,1111122 
SCCF RECON,ioos:station:SCCF:53:1,2011-03-06T16:00:00Z,26.6493,-81.8810,2.022,6.54,1111122 
SCCF RECON,ioos:station:SCCF:53:1,2011-03-06T17:00:00Z,26.6493,-81.8810,2.059,6.94,1111122 
SCCF RECON,ioos:station:SCCF:53:1,2011-03-06T18:00:00Z,26.6493,-81.8810,2.111,7.11,1111122 
SCCF RECON,ioos:station:SCCF:53:1,2011-03-06T19:00:00Z,26.6493,-81.8810,2.163,7.22,1111122 
SCCF RECON,ioos:station:SCCF:53:1,2011-03-06T20:00:00Z,26.6493,-81.8810,2.22,7.15,1111122 
SCCF RECON,ioos:station:SCCF:53:1,2011-03-06T21:00:00Z,26.6493,-81.8810,2.25,7.26,1111122 
SCCF RECON,ioos:station:SCCF:53:1,2011-03-06T22:00:00Z,26.6493,-81.8810,2.231,7.45,1111122 
SCCF RECON,ioos:station:SCCF:53:1,2011-03-06T23:00:00Z,26.6493,-81.8810,2.183,7.45,1111122 
SCCF RECON,ioos:station:SCCF:53:1,2011-03-07T00:00:00Z,26.6493,-81.8810,2.14,7.35,1111122 
SCCF RECON,ioos:station:SCCF:53:1,2011-03-07T01:00:00Z,26.6493,-81.8810,2.09,7.29,1111122 
SCCF RECON,ioos:station:SCCF:53:1,2011-03-07T02:00:00Z,26.6493,-81.8810,2.049,7.18,1111122 
SCCF RECON,ioos:station:SCCF:53:1,2011-03-07T03:00:00Z,26.6493,-81.8810,2.0,7.17,1111122 
SCCF RECON,ioos:station:SCCF:53:1,2011-03-07T04:00:00Z,26.6493,-81.8810,1.96,7.09,1111122 
SCCF RECON,ioos:station:SCCF:53:1,2011-03-07T05:00:00Z,26.6493,-81.8810,1.93,7.05,1111122 
SCCF RECON,ioos:station:SCCF:53:1,2011-03-07T06:00:00Z,26.6493,-81.8810,1.95,6.94,1111122 
SCCF RECON,ioos:station:SCCF:53:1,2011-03-07T07:00:00Z,26.6493,-81.8810,2.0,6.98,1111122 
SCCF RECON,ioos:station:SCCF:53:1,2011-03-07T08:00:00Z,26.6493,-81.8810,2.04,6.92,1111122 
SCCF RECON,ioos:station:SCCF:53:1,2011-03-07T09:00:00Z,26.6493,-81.8810,2.09,6.68,1111122 
SCCF RECON,ioos:station:SCCF:53:1,2011-03-07T10:00:00Z,26.6493,-81.8810,2.11,6.58,1111122 
SCCF RECON,ioos:station:SCCF:53:1,2011-03-07T11:00:00Z,26.6493,-81.8810,2.08,6.54,1111122 
SCCF RECON,ioos:station:SCCF:53:1,2011-03-07T12:00:00Z,26.6493,-81.8810,2.04,6.49,1111122 
SCCF RECON,ioos:station:SCCF:53:1,2011-03-07T13:00:00Z,26.6493,-81.8810,2.01,6.44,1111122 
SCCF RECON,ioos:station:SCCF:53:1,2011-03-07T14:00:00Z,26.6493,-81.8810,1.96,6.36,1111122 
SCCF RECON,ioos:station:SCCF:53:1,2011-03-07T15:00:00Z,26.6493,-81.8810,1.929,6.63,1111122 
SCCF RECON,ioos:station:SCCF:53:1,2011-03-07T16:00:00Z,26.6493,-81.8810,1.9,6.45,1111122 
SCCF RECON,ioos:station:SCCF:53:1,2011-03-07T17:00:00Z,26.6493,-81.8810,1.901,6.58,1111122 
SCCF RECON,ioos:station:SCCF:53:1,2011-03-07T18:00:00Z,26.6493,-81.8810,1.95,6.81,1111122 
SCCF RECON,ioos:station:SCCF:53:1,2011-03-07T20:00:00Z,26.6493,-81.8810,2.04,7.24,1111122 
SCCF RECON,ioos:station:SCCF:53:1,2011-03-07T21:00:00Z,26.6493,-81.8810,2.094,7.3,1111122 
SCCF RECON,ioos:station:SCCF:53:1,2011-03-07T22:00:00Z,26.6493,-81.8810,2.133,7.14,1111122 
SCCF RECON,ioos:station:SCCF:53:1,2011-03-07T23:00:00Z,26.6493,-81.8810,2.134,7.04,1111122 
SCCF RECON,ioos:station:SCCF:53:1,2011-03-08T00:00:00Z,26.6493,-81.8810,2.1,7.02,1111122 
SCCF RECON,ioos:station:SCCF:53:1,2011-03-08T01:00:00Z,26.6493,-81.8810,2.06,7.36,1111122 
SCCF RECON,ioos:station:SCCF:53:1,2011-03-08T02:00:00Z,26.6493,-81.8810,2.02,7.4,1111122 
SCCF RECON,ioos:station:SCCF:53:1,2011-03-08T03:00:00Z,26.6493,-81.8810,1.973,7.08,1111122 
SCCF RECON,ioos:station:SCCF:53:1,2011-03-08T04:00:00Z,26.6493,-81.8810,1.931,7.11,1111122 
SCCF RECON,ioos:station:SCCF:53:1,2011-03-08T05:00:00Z,26.6493,-81.8810,1.9,7.26,1111122 
SCCF RECON,ioos:station:SCCF:53:1,2011-03-08T06:00:00Z,26.6493,-81.8810,1.903,6.95,1111122 
SCCF RECON,ioos:station:SCCF:53:1,2011-03-08T07:00:00Z,26.6493,-81.8810,1.942,6.94,1111122 
SCCF RECON,ioos:station:SCCF:53:1,2011-03-08T08:00:00Z,26.6493,-81.8810,1.977,7.23,1111122 
SCCF RECON,ioos:station:SCCF:53:1,2011-03-08T09:00:00Z,26.6493,-81.8810,2.02,7.01,1111122 
SCCF RECON,ioos:station:SCCF:53:1,2011-03-08T10:00:00Z,26.6493,-81.8810,2.054,7.02,1111122 
SCCF RECON,ioos:station:SCCF:53:1,2011-03-08T11:00:00Z,26.6493,-81.8810,2.07,6.98,1111122 
SCCF RECON,ioos:station:SCCF:53:1,2011-03-08T12:00:00Z,26.6493,-81.8810,2.05,6.99,1111122 
SCCF RECON,ioos:station:SCCF:53:1,2011-03-08T13:00:00Z,26.6493,-81.8810,2.02,7.23,1111122 
SCCF RECON,ioos:station:SCCF:53:1,2011-03-08T14:00:00Z,26.6493,-81.8810,1.99,6.95,1111122 
SCCF RECON,ioos:station:SCCF:53:1,2011-03-08T15:00:00Z,26.6493,-81.8810,1.96,7.1,1111122 
SCCF RECON,ioos:station:SCCF:53:1,2011-03-08T16:00:00Z,26.6493,-81.8810,1.942,7.05,1111122 
SCCF RECON,ioos:station:SCCF:53:1,2011-03-08T17:00:00Z,26.6493,-81.8810,1.97,7.13,1111122 
SCCF RECON,ioos:station:SCCF:53:1,2011-03-08T18:00:00Z,26.6493,-81.8810,2.021,7.51,1111122 
SCCF RECON,ioos:station:SCCF:53:1,2011-03-08T19:00:00Z,26.6493,-81.8810,2.068,7.58,1111122 
SCCF RECON,ioos:station:SCCF:53:1,2011-03-08T20:00:00Z,26.6493,-81.8810,2.119,7.63,1111122 
SCCF RECON,ioos:station:SCCF:53:1,2011-03-08T21:00:00Z,26.6493,-81.8810,2.17,7.64,1111122 
SCCF RECON,ioos:station:SCCF:53:1,2011-03-08T22:00:00Z,26.6493,-81.8810,2.219,7.6,1111122 
SCCF RECON,ioos:station:SCCF:53:1,2011-03-08T23:00:00Z,26.6493,-81.8810,2.228,7.47,1111122 
SCCF RECON,ioos:station:SCCF:53:1,2011-03-09T00:00:00Z,26.6493,-81.8810,2.19,7.24,1111122 
SCCF RECON,ioos:station:SCCF:53:1,2011-03-09T01:00:00Z,26.6493,-81.8810,2.13,6.99,1111122 
SCCF RECON,ioos:station:SCCF:53:1,2011-03-09T02:00:00Z,26.6493,-81.8810,2.09,7.39,1111122 
SCCF RECON,ioos:station:SCCF:53:1,2011-03-09T03:00:00Z,26.6493,-81.8810,2.03,7.27,1111122 
SCCF RECON,ioos:station:SCCF:53:1,2011-03-09T04:00:00Z,26.6493,-81.8810,1.98,7.3,1111122 
SCCF RECON,ioos:station:SCCF:53:1,2011-03-09T05:00:00Z,26.6493,-81.8810,1.93,7.11,1111122 
SCCF RECON,ioos:station:SCCF:53:1,2011-03-09T06:00:00Z,26.6493,-81.8810,1.9,7.21,1111122 
SCCF RECON,ioos:station:SCCF:53:1,2011-03-09T07:00:00Z,26.6493,-81.8810,1.92,7.05,1111122 
SCCF RECON,ioos:station:SCCF:53:1,2011-03-09T08:00:00Z,26.6493,-81.8810,1.96,6.99,1111122 
SCCF RECON,ioos:station:SCCF:53:1,2011-03-09T09:00:00Z,26.6493,-81.8810,2.0,7.08,1111122 
SCCF RECON,ioos:station:SCCF:53:1,2011-03-09T10:00:00Z,26.6493,-81.8810,2.04,7.01,1111122 
SCCF RECON,ioos:station:SCCF:53:1,2011-03-09T11:00:00Z,26.6493,-81.8810,2.071,7.08,1111122 
SCCF RECON,ioos:station:SCCF:53:1,2011-03-09T12:00:00Z,26.6493,-81.8810,2.083,7.08,1111122 
SCCF RECON,ioos:station:SCCF:53:1,2011-03-09T13:00:00Z,26.6493,-81.8810,2.07,7.0,1111122 
SCCF RECON,ioos:station:SCCF:53:1,2011-03-09T14:00:00Z,26.6493,-81.8810,2.06,6.96,1111122 
SCCF RECON,ioos:station:SCCF:53:1,2011-03-09T15:00:00Z,26.6493,-81.8810,2.047,6.98,1111122 
SCCF RECON,ioos:station:SCCF:53:1,2011-03-09T16:00:00Z,26.6493,-81.8810,2.031,6.89,1111122 
SCCF RECON,ioos:station:SCCF:53:1,2011-03-09T17:00:00Z,26.6493,-81.8810,2.048,6.8,1111122 
SCCF RECON,ioos:station:SCCF:53:1,2011-03-09T18:00:00Z,26.6493,-81.8810,2.089,7.02,1111122 
SCCF RECON,ioos:station:SCCF:53:1,2011-03-09T19:00:00Z,26.6493,-81.8810,2.14,7.48,1111122 
SCCF RECON,ioos:station:SCCF:53:1,2011-03-09T20:00:00Z,26.6493,-81.8810,2.2,7.44,1111122 
SCCF RECON,ioos:station:SCCF:53:1,2011-03-09T21:00:00Z,26.6493,-81.8810,2.268,7.66,1111122 
SCCF RECON,ioos:station:SCCF:53:1,2011-03-09T22:00:00Z,26.6493,-81.8810,2.334,7.68,1111122 
SCCF RECON,ioos:station:SCCF:53:1,2011-03-09T23:00:00Z,26.6493,-81.8810,2.38,7.57,1111122 
SCCF RECON,ioos:station:SCCF:53:1,2011-03-10T00:00:00Z,26.6493,-81.8810,2.384,7.76,1111122 
SCCF RECON,ioos:station:SCCF:53:1,2011-03-10T01:00:00Z,26.6493,-81.8810,2.336,7.64,1111122 
SCCF RECON,ioos:station:SCCF:53:1,2011-03-10T02:00:00Z,26.6493,-81.8810,2.28,7.52,1111122 
SCCF RECON,ioos:station:SCCF:53:1,2011-03-10T03:00:00Z,26.6493,-81.8810,2.222,7.41,1111122 
SCCF RECON,ioos:station:SCCF:53:1,2011-03-10T04:00:00Z,26.6493,-81.8810,2.16,7.33,1111122 
SCCF RECON,ioos:station:SCCF:53:1,2011-03-10T05:00:00Z,26.6493,-81.8810,2.109,7.34,1111122 
SCCF RECON,ioos:station:SCCF:53:1,2011-03-10T06:00:00Z,26.6493,-81.8810,2.05,7.28,1111122 
SCCF RECON,ioos:station:SCCF:53:1,2011-03-10T07:00:00Z,26.6493,-81.8810,2.03,7.16,1111122 
SCCF RECON,ioos:station:SCCF:53:1,2011-03-10T08:00:00Z,26.6493,-81.8810,2.044,7.15,1111122 
SCCF RECON,ioos:station:SCCF:53:1,2011-03-10T09:00:00Z,26.6493,-81.8810,2.08,6.96,1111122 
SCCF RECON,ioos:station:SCCF:53:1,2011-03-10T10:00:00Z,26.6493,-81.8810,2.107,6.97,1111122 
SCCF RECON,ioos:station:SCCF:53:1,2011-03-10T11:00:00Z,26.6493,-81.8810,2.12,7.07,1111122 
SCCF RECON,ioos:station:SCCF:53:1,2011-03-10T12:00:00Z,26.6493,-81.8810,2.1,7.14,1111122 
SCCF RECON,ioos:station:SCCF:53:1,2011-03-10T13:00:00Z,26.6493,-81.8810,2.1,7.01,1111122 
SCCF RECON,ioos:station:SCCF:53:1,2011-03-10T14:00:00Z,26.6493,-81.8810,2.083,7.13,1111122 
SCCF RECON,ioos:station:SCCF:53:1,2011-03-10T15:00:00Z,26.6493,-81.8810,2.1,7.15,1111122 
SCCF RECON,ioos:station:SCCF:53:1,2011-03-10T16:00:00Z,26.6493,-81.8810,2.078,7.21,1111122 
SCCF RECON,ioos:station:SCCF:53:1,2011-03-10T17:00:00Z,26.6493,-81.8810,2.05,7.12,1111122 
SCCF RECON,ioos:station:SCCF:53:1,2011-03-10T18:00:00Z,26.6493,-81.8810,2.03,6.99,1111122 
SCCF RECON,ioos:station:SCCF:53:1,2011-03-10T19:00:00Z,26.6493,-81.8810,2.01,6.82,1111122 
SCCF RECON,ioos:station:SCCF:53:1,2011-03-10T20:00:00Z,26.6493,-81.8810,2.08,6.98,1111122 
SCCF RECON,ioos:station:SCCF:53:1,2011-03-10T21:00:00Z,26.6493,-81.8810,2.151,7.37,1111122 
SCCF RECON,ioos:station:SCCF:53:1,2011-03-10T22:00:00Z,26.6493,-81.8810,2.209,7.54,1111122 
SCCF RECON,ioos:station:SCCF:53:1,2011-03-10T23:00:00Z,26.6493,-81.8810,2.268,7.46,1111122 
SCCF RECON,ioos:station:SCCF:53:1,2011-03-11T00:00:00Z,26.6493,-81.8810,2.272,7.36,1111122 
SCCF RECON,ioos:station:SCCF:53:1,2011-03-11T01:00:00Z,26.6493,-81.8810,2.25,7.37,1111122 
SCCF RECON,ioos:station:SCCF:53:1,2011-03-11T02:00:00Z,26.6493,-81.8810,2.2,7.39,1111122 
SCCF RECON,ioos:station:SCCF:53:1,2011-03-11T03:00:00Z,26.6493,-81.8810,2.15,7.3,1111122 
SCCF RECON,ioos:station:SCCF:53:1,2011-03-11T04:00:00Z,26.6493,-81.8810,2.092,7.21,1111122 
SCCF RECON,ioos:station:SCCF:53:1,2011-03-11T05:00:00Z,26.6493,-81.8810,2.04,7.19,1111122 
SCCF RECON,ioos:station:SCCF:53:1,2011-03-11T06:00:00Z,26.6493,-81.8810,1.99,6.82,1111122 
SCCF RECON,ioos:station:SCCF:53:1,2011-03-11T07:00:00Z,26.6493,-81.8810,1.95,6.74,1111122 
SCCF RECON,ioos:station:SCCF:53:1,2011-03-11T08:00:00Z,26.6493,-81.8810,1.9,6.88,1111122 
SCCF RECON,ioos:station:SCCF:53:1,2011-03-11T09:00:00Z,26.6493,-81.8810,1.88,6.96,1111122 
SCCF RECON,ioos:station:SCCF:53:1,2011-03-11T10:00:00Z,26.6493,-81.8810,1.88,6.69,1111122 
SCCF RECON,ioos:station:SCCF:53:1,2011-03-11T11:00:00Z,26.6493,-81.8810,1.879,6.65,1111122 
SCCF RECON,ioos:station:SCCF:53:1,2011-03-11T12:00:00Z,26.6493,-81.8810,1.886,6.67,1111122 
SCCF RECON,ioos:station:SCCF:53:1,2011-03-11T13:00:00Z,26.6493,-81.8810,1.894,6.88,1111122 
SCCF RECON,ioos:station:SCCF:53:1,2011-03-11T14:00:00Z,26.6493,-81.8810,1.87,6.95,1111122 
SCCF RECON,ioos:station:SCCF:53:1,2011-03-11T15:00:00Z,26.6493,-81.8810,1.86,7.01,1111122 
SCCF RECON,ioos:station:SCCF:53:1,2011-03-11T16:00:00Z,26.6493,-81.8810,1.84,7.29,1111122 
SCCF RECON,ioos:station:SCCF:53:1,2011-03-11T17:00:00Z,26.6493,-81.8810,1.847,7.36,1111122 
SCCF RECON,ioos:station:SCCF:53:1,2011-03-11T18:00:00Z,26.6493,-81.8810,1.88,7.29,1111122 
SCCF RECON,ioos:station:SCCF:53:1,2011-03-11T19:00:00Z,26.6493,-81.8810,1.91,7.19,1111122 
SCCF RECON,ioos:station:SCCF:53:1,2011-03-11T20:00:00Z,26.6493,-81.8810,1.939,7.03,1111122 
SCCF RECON,ioos:station:SCCF:53:1,2011-03-11T21:00:00Z,26.6493,-81.8810,1.982,7.72,1111122 